Location: Santiago
(33.4378°S, 70.6505°W)
Time: 07:46:23
(UTC+00:00)

ISS - Pass Details

Date: 07 February 2026
Orbit: 413 x 428 km, 51.6° (Epoch: 13 February)

Event Time Altitude Azimuth Distance (km) Brightness Sun altitude
Rises 02:11:20 0° 264° (W) 2,406 0.8 -27.3°
Reaches altitude 10° 02:14:41 10° 229° (SW) 1,547 0.1 -27.8°
Maximum altitude 02:15:58 12° 207° (SSW) 1,452 -0.2 -28.0°
Drops below altitude 10° 02:17:17 10° 185° (S) 1,552 -0.3 -28.2°
Enters shadow 02:19:57 - 155° (SSE) 2,204 0.2 -28.6°
